CT2IRK-11 Weather Reports


time (UTC)temp
C
wind
direction
speed
KPH
gust
KPH
rain 1hr
cm
rain 24hr
cm
rain mn
cm
humidity
%
barometer
mb
20260505151005 20 310 11.3 20.9 0.00 0.00 0.00 54 1008.9
20260505124005 21 349 1.6 19.3 0.00 0.00 0.00 43 1009.7
20260505123005 22 38 1.6 20.9 0.00 0.00 0.00 44 1009.7
20260505122005 21 20 9.7 14.5 0.00 0.00 0.00 45 1009.9
20260505121005 20 314 11.3 16.1 0.00 0.00 0.00 47 1010.0
20260505120005 21 319 4.8 19.3 0.00 0.00 0.00 42 1010.1
20260505115005 22 13 3.2 19.3 0.00 0.00 0.00 39 1010.1
20260505114005 21 15 1.6 11.3 0.00 0.00 0.00 44 1010.2
20260505113005 20 44 1.6 20.9 0.00 0.00 0.00 50 1010.3
20260505112005 20 303 9.7 20.9 0.00 0.00 0.00 50 1010.4
20260505111005 20 24 0.0 11.3 0.00 0.00 0.00 47 1010.4
20260505101005 21 284 0.0 0.0 0.00 0.00 0.00 49 1010.6
20260505100004 20 292 0.0 0.0 0.00 0.00 0.00 53 1010.5
20260505095004 22 264 0.0 0.0 0.00 0.00 0.00 47 1010.6
20260505094005 21 302 0.0 0.0 0.00 0.00 0.00 49 1010.6
20260505093005 19 270 0.0 0.0 0.00 0.00 0.00 57 1010.7
20260505092005 20 330 0.0 1.6 0.00 0.00 0.00 56 1010.7
20260505091005 22 292 0.0 0.0 0.00 0.00 0.00 49 1010.7
20260505090005 21 280 0.0 0.0 0.00 0.00 0.00 54 1010.7
20260505083005 18 241 0.0 0.0 0.00 0.00 0.00 63 1010.7
20260505082004 18 267 0.0 0.0 0.00 0.00 0.00 64 1010.6
20260505081005 17 270 0.0 0.0 0.00 0.00 0.00 64 1010.6
20260505075004 18 256 0.0 0.0 0.00 0.00 0.00 61 1010.5
20260505074004 18 277 0.0 0.0 0.00 0.00 0.00 62 1010.6
20260505073004 17 239 0.0 0.0 0.00 0.00 0.00 65 1010.5
20260505072006 15 194 0.0 0.0 0.00 0.00 0.00 74 1010.5
20260505071005 15 212 0.0 0.0 0.00 0.00 0.00 75 1010.5
20260505070005 14 217 0.0 0.0 0.00 0.00 0.00 77 1010.4
20260505065005 13 203 0.0 0.0 0.00 0.00 0.00 80 1010.3
20260505064005 12 180 0.0 0.0 0.00 0.00 0.00 82 1010.3
20260505063004 11 225 0.0 0.0 0.00 0.00 0.00 89 1010.2
20260505062005 11 158 0.0 0.0 0.00 0.00 0.00 87 1010.2
20260505061004 9 202 0.0 0.0 0.00 0.00 0.00 96 1010.1
20260505060004 9 112 0.0 0.0 0.00 0.00 0.00 98 1009.9
20260505055005 9 158 0.0 0.0 0.00 0.00 0.00 98 1009.9
20260505054005 8 112 0.0 0.0 0.00 0.00 0.00 99 1009.9
20260505052005 8 113 1.6 3.2 0.00 0.00 0.00 99 1009.7
20260505041006 8 176 0.0 0.0 0.00 0.00 0.00 97 1010.0
20260505035005 8 146 0.0 0.0 0.00 0.00 0.00 98 1010.1
20260505034005 8 180 0.0 0.0 0.00 0.00 0.00 96 1010.1
20260505033006 9 122 0.0 3.2 0.00 0.00 0.00 97 1010.0
20260505032005 9 135 0.0 0.0 0.00 0.00 0.00 97 1009.9
20260505031006 9 136 0.0 0.0 0.00 0.00 0.00 96 1010.0
20260505030005 9 123 0.0 0.0 0.00 0.00 0.00 96 1010.1
20260505024006 9 141 0.0 0.0 0.00 0.00 0.00 94 1010.1
20260505023005 10 218 0.0 0.0 0.00 0.00 0.00 95 1010.1
20260505022006 9 229 0.0 0.0 0.00 0.00 0.00 94 1010.3
20260505021005 10 135 0.0 0.0 0.00 0.00 0.00 93 1010.3
20260505020005 10 270 0.0 0.0 0.00 0.00 0.00 93 1010.3
20260505014005 10 193 0.0 0.0 0.00 0.00 0.00 93 1010.3
20260505013006 10 134 0.0 0.0 0.00 0.00 0.00 93 1010.6
20260505012005 11 175 0.0 0.0 0.00 0.00 0.00 91 1010.7
20260505011006 10 143 0.0 0.0 0.00 0.00 0.00 90 1010.6
20260505005006 11 87 0.0 0.0 0.00 0.00 0.00 90 1010.9
20260505004005 11 135 0.0 0.0 0.00 0.00 0.00 90 1011.0
20260505003005 11 173 0.0 0.0 0.00 0.00 0.00 91 1010.9
20260505002005 11 120 0.0 0.0 0.00 0.00 0.00 89 1010.9
20260505001005 11 117 0.0 0.0 0.00 0.00 0.00 87 1011.3
20260504233005 12 208 0.0 0.0 0.00 0.00 0.00 86 1011.4
20260504232005 12 193 0.0 0.0 0.00 0.00 0.00 86 1011.3
20260504231005 12 180 0.0 0.0 0.00 0.00 0.00 86 1011.1
20260504230006 12 220 0.0 0.0 0.00 0.00 0.00 86 1011.2
20260504225006 12 256 0.0 0.0 0.00 0.00 0.00 86 1011.1
20260504224005 12 270 0.0 0.0 0.00 0.00 0.00 85 1011.1
20260504223005 12 252 0.0 0.0 0.00 0.00 0.00 85 1011.2
20260504222005 12 269 0.0 0.0 0.00 0.00 0.00 84 1011.2
20260504221005 12 270 0.0 0.0 0.00 0.00 0.00 85 1011.1
20260504220005 13 357 0.0 0.0 0.00 0.00 0.00 81 1011.2
20260504215005 13 26 0.0 0.0 0.00 0.00 0.00 81 1011.2
20260504214005 13 71 0.0 0.0 0.00 0.00 0.00 81 1011.2
20260504212005 13 356 0.0 0.0 0.00 0.00 0.00 79 1011.1
20260504211005 13 351 0.0 0.0 0.00 0.00 0.00 78 1011.1
20260504205005 14 10 0.0 8.0 0.00 0.00 0.00 74 1010.8
20260504204005 14 38 1.6 8.0 0.00 0.00 0.00 74 1010.7
20260504203005 14 338 0.0 0.0 0.00 0.00 0.00 73 1010.6
20260504202006 14 0 0.0 9.7 0.00 0.00 0.00 72 1010.5
20260504201007 15 287 0.0 1.6 0.00 0.00 0.00 73 1010.4
20260504200005 15 279 0.0 1.6 0.00 0.00 0.00 72 1010.3
20260504195005 15 320 0.0 1.6 0.00 0.00 0.00 70 1010.2
20260504194005 15 356 3.2 9.7 0.00 0.00 0.00 68 1010.1
20260504191006 16 300 14.5 20.9 0.00 0.00 0.00 59 1009.7
20260504190005 17 338 14.5 19.3 0.00 0.00 0.00 54 1009.4
20260504185006 17 302 14.5 19.3 0.00 0.00 0.00 54 1009.5
20260504184005 17 320 14.5 22.5 0.00 0.00 0.00 54 1009.5
20260504183005 18 313 17.7 22.5 0.00 0.00 0.00 53 1009.4
20260504182005 18 324 20.9 25.7 0.00 0.00 0.00 51 1009.4
20260504180005 19 328 14.5 16.1 0.00 0.00 0.00 49 1009.4
20260504173005 20 338 14.5 22.5 0.00 0.00 0.00 46 1009.3